QPF
0.01 0.01 0.01 0.01 0.02 0.02 0.02 0.02 0.01 0.01 0.01 0.01 0.01 0.01 0.03 0.03 0.03 0.05 0.07 0.07 0.06 0.06 0.05 0.05 0.04 0.03 0.03 0.03 0.03 0.03 0.03 0.02 0.02 0.01 0.01 0.01 0.02 0.02 0.03 0.02 0.01 0.02 0.02
0.00 0.01 0.01 0.01 0.01 0.01 0.02 0.02 0.01 0.01 0.01 0.01 0.01 0.00 0.01 0.01 0.02 0.03 0.04 0.05 0.07 0.07 0.06 0.05 0.06 0.06 0.05 0.05 0.04 0.04 0.04 0.03 0.02 0.01 0.01 0.01 0.02 0.03 0.03 0.02 0.02 0.01 0.00
0.01 0.01 0.01 0.01 0.01 0.01 0.01 0.01 0.01 0.01 0.01 0.01 0.01 0.01 0.01 0.01 0.01 0.02 0.03 0.03 0.04 0.05 0.05 0.04 0.04 0.04 0.05 0.06 0.06 0.06 0.05 0.04 0.03 0.02 0.01 0.01 0.01 0.02 0.03 0.04 0.03 0.01 0.01
0.01 0.01 0.01 0.02 0.01 0.01 0.01 0.01 0.01 0.01 0.01 0.01 0.01 0.01 0.00 0.01 0.01 0.01 0.01 0.01 0.02 0.03 0.04 0.04 0.04 0.03 0.03 0.03 0.05 0.06 0.06 0.06 0.05 0.04 0.03 0.02 0.02 0.02 0.02 0.04 0.05 0.03 0.01
0.01 0.01 0.01 0.02 0.02 0.01 0.01 0.01 0.01 0.01 0.01 0.01 0.00 0.00 0.00 0.01 0.01 0.02 0.02 0.02 0.01 0.01 0.02 0.02 0.03 0.03 0.03 0.03 0.03 0.04 0.05 0.06 0.07 0.07 0.05 0.03 0.03 0.03 0.03 0.02 0.04 0.04 0.02
0.02 0.01 0.01 0.01 0.02 0.02 0.01 0.01 0.01 0.01 0.01 0.00 0.00 0.00 0.00 0.00 0.01 0.02 0.02 0.02 0.02 0.02 0.02 0.01 0.01 0.02 0.03 0.03 0.03 0.03 0.04 0.04 0.04 0.05 0.05 0.04 0.03 0.03 0.04 0.03 0.03 0.04 0.03
0.02 0.02 0.01 0.01 0.01 0.01 0.01 0.01 0.01 0.01 0.01 0.00 0.00 0.00 0.00 0.00 0.01 0.01 0.01 0.01 0.02 0.02 0.02 0.02 0.02 0.02 0.03 0.03 0.03 0.04 0.04 0.04 0.04 0.03 0.03 0.03 0.03 0.03 0.04 0.04 0.03 0.03 0.03
0.02 0.02 0.02 0.02 0.01 0.01 0.01 0.01 0.01 0.01 0.01 0.00 0.00 0.00 0.00 0.00 0.01 0.01 0.01 0.01 0.01 0.02 0.02 0.02 0.02 0.02 0.02 0.04 0.04 0.04 0.03 0.03 0.03 0.02 0.02 0.02 0.02 0.02 0.03 0.03 0.04 0.03 0.03
0.02 0.02 0.02 0.01 0.01 0.01 0.01 0.01 0.01 0.01 0.01 0.00 0.00 0.00 0.00 0.00 0.01 0.01 0.01 0.01 0.01 0.01 0.02 0.02 0.02 0.02 0.03 0.04 0.04 0.05 0.04 0.04 0.04 0.03 0.03 0.03 0.03 0.03 0.03 0.03 0.04 0.04 0.04
0.01 0.01 0.01 0.01 0.01 0.01 0.01 0.01 0.01 0.01 0.01 0.01 0.00 0.00 0.00 0.01 0.01 0.01 0.01 0.01 0.01 0.01 0.01 0.02 0.03 0.02 0.03 0.03 0.03 0.04 0.04 0.04 0.04 0.03 0.03 0.03 0.02 0.03 0.03 0.02 0.03 0.04 0.04
0.01 0.01 0.00 0.01 0.01 0.01 0.01 0.01 0.01 0.01 0.01 0.01 0.00 0.00 0.01 0.01 0.01 0.01 0.01 0.01 0.01 0.01 0.01 0.02 0.02 0.02 0.02 0.02 0.03 0.04 0.05 0.04 0.04 0.04 0.04 0.04 0.03 0.03 0.03 0.03 0.02 0.03 0.04
0.01 0.00 0.00 0.00 0.00 0.00 0.01 0.00 0.00 0.01 0.01 0.01 0.01 0.01 0.01 0.01 0.01 0.01 0.01 0.01 0.01 0.01 0.01 0.02 0.02 0.02 0.02 0.02 0.03 0.04 0.06 0.05 0.04 0.04 0.04 0.04 0.03 0.02 0.02 0.02 0.02 0.02 0.02
0.01 0.01 0.00 0.00 0.00 0.00 0.01 0.00 0.00 0.00 0.00 0.00 0.01 0.01 0.00 0.01 0.01 0.01 0.01 0.01 0.01 0.02 0.02 0.02 0.02 0.02 0.02 0.01 0.02 0.02 0.04 0.05 0.05 0.05 0.04 0.03 0.02 0.02 0.02 0.02 0.02 0.02 0.02
0.01 0.01 0.00 0.00 0.00 0.00 0.00 0.00 0.00 0.01 0.00 0.00 0.00 0.01 0.01 0.01 0.01 0.01 0.01 0.01 0.01 0.02 0.01 0.01 0.01 0.01 0.01 0.01 0.01 0.01 0.02 0.04 0.05 0.05 0.05 0.04 0.03 0.02 0.03 0.02 0.02 0.03 0.03
0.01 0.01 0.01 0.01 0.01 0.00 0.00 0.00 0.00 0.00 0.01 0.01 0.01 0.01 0.01 0.01 0.01 0.01 0.01 0.01 0.01 0.01 0.01 0.01 0.01 0.01 0.01 0.01 0.01 0.01 0.01 0.02 0.03 0.05 0.06 0.06 0.04 0.03 0.03 0.02 0.02 0.02 0.02
0.01 0.01 0.01 0.01 0.01 0.01 0.01 0.01 0.01 0.01 0.01 0.01 0.01 0.01 0.01 0.01 0.01 0.01 0.01 0.01 0.01 0.01 0.01 0.00 0.01 0.01 0.01 0.01 0.01 0.01 0.01 0.01 0.02 0.03 0.05 0.06 0.06 0.04 0.03 0.02 0.02 0.02 0.02
0.01 0.01 0.01 0.01 0.01 0.01 0.01 0.01 0.01 0.01 0.01 0.01 0.01 0.01 0.01 0.01 0.01 0.01 0.01 0.01 0.01 0.01 0.01 0.01 0.00 0.01 0.01 0.01 0.01 0.01 0.01 0.01 0.01 0.02 0.03 0.05 0.05 0.05 0.04 0.03 0.02 0.02 0.02
0.01 0.01 0.01 0.01 0.01 0.01 0.01 0.01 0.01 0.01 0.01 0.01 0.01 0.01 0.01 0.01 0.01 0.01 0.01 0.01 0.01 0.01 0.00 0.00 0.00 0.00 0.00 0.00 0.01 0.01 0.01 0.01 0.01 0.02 0.03 0.03 0.04 0.04 0.04 0.04 0.03 0.02 0.02
0.01 0.01 0.01 0.01 0.01 0.01 0.01 0.01 0.01 0.01 0.01 0.01 0.01 0.01 0.01 0.01 0.01 0.01 0.01 0.01 0.01 0.00 0.00 0.00 0.00 0.00 0.00 0.00 0.01 0.01 0.01 0.01 0.02 0.02 0.02 0.03 0.02 0.03 0.03 0.03 0.03 0.03 0.02
0.01 0.01 0.01 0.01 0.02 0.02 0.01 0.01 0.01 0.01 0.01 0.01 0.01 0.02 0.02 0.02 0.02 0.01 0.01 0.01 0.01 0.01 0.01 0.00 0.00 0.00 0.01 0.01 0.01 0.01 0.01 0.02 0.02 0.02 0.02 0.02 0.02 0.02 0.03 0.03 0.03 0.03 0.02
0.01 0.01 0.01 0.01 0.02 0.02 0.02 0.01 0.01 0.01 0.01 0.01 0.01 0.01 0.01 0.02 0.01 0.01 0.01 0.01 0.01 0.01 0.01 0.01 0.01 0.01 0.01 0.01 0.01 0.01 0.01 0.01 0.02 0.02 0.02 0.02 0.02 0.02 0.02 0.03 0.03 0.03 0.03
0.01 0.01 0.01 0.01 0.01 0.01 0.02 0.01 0.01 0.01 0.01 0.01 0.00 0.00 0.01 0.01 0.01 0.01 0.01 0.01 0.01 0.01 0.01 0.01 0.01 0.01 0.01 0.01 0.01 0.01 0.01 0.01 0.01 0.02 0.02 0.02 0.02 0.02 0.02 0.03 0.03 0.03 0.03
0.01 0.01 0.01 0.01 0.01 0.01 0.01 0.02 0.01 0.01 0.01 0.01 0.00 0.00 0.01 0.01 0.01 0.01 0.01 0.01 0.01 0.01 0.00 0.01 0.01 0.01 0.01 0.01 0.01 0.02 0.02 0.01 0.01 0.01 0.02 0.02 0.02 0.02 0.02 0.02 0.03 0.03 0.03
0.01 0.01 0.01 0.01 0.01 0.01 0.01 0.02 0.02 0.02 0.01 0.01 0.01 0.01 0.01 0.01 0.01 0.01 0.01 0.01 0.01 0.01 0.01 0.01 0.01 0.01 0.01 0.01 0.01 0.02 0.02 0.02 0.02 0.03 0.02 0.02 0.02 0.02 0.02 0.03 0.03 0.03 0.03
0.01 0.01 0.01 0.01 0.01 0.01 0.01 0.01 0.02 0.02 0.01 0.01 0.01 0.01 0.01 0.01 0.01 0.01 0.01 0.01 0.01 0.01 0.01 0.01 0.01 0.01 0.01 0.01 0.01 0.01 0.02 0.02 0.03 0.03 0.04 0.03 0.03 0.02 0.03 0.03 0.03 0.03 0.04
0.01 0.02 0.02 0.02 0.02 0.02 0.01 0.01 0.01 0.01 0.01 0.01 0.01 0.01 0.01 0.01 0.01 0.01 0.01 0.01 0.01 0.01 0.01 0.01 0.01 0.01 0.01 0.01 0.01 0.01 0.02 0.02 0.02 0.03 0.04 0.04 0.04 0.03 0.02 0.02 0.02 0.03 0.03
MSLP
1009.38 1009.27 1009.23 1009.26 1009.33 1009.43 1009.56 1009.72 1009.91 1010.14 1010.39 1010.67 1010.95 1011.23 1011.49 1011.71 1011.89 1012.03 1012.12 1012.19 1012.25 1012.30 1012.36 1012.43 1012.52 1012.61 1012.70 1012.77 1012.82 1012.82 1012.78 1012.70 1012.58 1012.43 1012.28 1012.15 1012.05 1011.99 1011.98 1012.02 1012.09 1012.18 1012.24
1010.11 1010.05 1010.06 1010.13 1010.25 1010.38 1010.54 1010.70 1010.88 1011.07 1011.27 1011.48 1011.70 1011.90 1012.10 1012.27 1012.40 1012.51 1012.59 1012.64 1012.67 1012.69 1012.71 1012.73 1012.76 1012.79 1012.82 1012.85 1012.86 1012.84 1012.80 1012.72 1012.62 1012.50 1012.37 1012.25 1012.15 1012.08 1012.05 1012.05 1012.08 1012.12 1012.15
1010.70 1010.69 1010.75 1010.87 1011.03 1011.20 1011.39 1011.57 1011.75 1011.92 1012.08 1012.23 1012.38 1012.52 1012.64 1012.75 1012.85 1012.92 1012.98 1013.01 1013.02 1013.02 1013.01 1012.99 1012.97 1012.96 1012.94 1012.93 1012.91 1012.88 1012.84 1012.77 1012.69 1012.59 1012.48 1012.37 1012.27 1012.19 1012.14 1012.11 1012.10 1012.10 1012.08
1011.13 1011.15 1011.23 1011.38 1011.57 1011.78 1012.00 1012.20 1012.39 1012.55 1012.69 1012.80 1012.90 1012.98 1013.04 1013.11 1013.16 1013.20 1013.23 1013.24 1013.24 1013.23 1013.19 1013.15 1013.11 1013.06 1013.01 1012.97 1012.93 1012.89 1012.85 1012.80 1012.74 1012.66 1012.58 1012.48 1012.39 1012.31 1012.24 1012.18 1012.13 1012.09 1012.04
1011.40 1011.41 1011.49 1011.64 1011.84 1012.07 1012.31 1012.54 1012.74 1012.91 1013.03 1013.13 1013.19 1013.23 1013.26 1013.28 1013.30 1013.31 1013.32 1013.32 1013.30 1013.28 1013.23 1013.17 1013.11 1013.04 1012.97 1012.91 1012.86 1012.82 1012.79 1012.76 1012.72 1012.67 1012.60 1012.53 1012.45 1012.37 1012.29 1012.22 1012.15 1012.08 1012.01
1011.52 1011.50 1011.55 1011.68 1011.87 1012.10 1012.35 1012.59 1012.81 1012.99 1013.13 1013.22 1013.27 1013.29 1013.29 1013.29 1013.27 1013.26 1013.25 1013.24 1013.21 1013.17 1013.12 1013.05 1012.97 1012.89 1012.81 1012.74 1012.68 1012.65 1012.62 1012.60 1012.58 1012.56 1012.52 1012.47 1012.41 1012.34 1012.26 1012.19 1012.12 1012.05 1011.98
1011.53 1011.46 1011.46 1011.55 1011.71 1011.93 1012.17 1012.42 1012.66 1012.86 1013.02 1013.12 1013.18 1013.19 1013.19 1013.16 1013.13 1013.10 1013.07 1013.04 1013.00 1012.95 1012.88 1012.80 1012.71 1012.62 1012.53 1012.45 1012.39 1012.35 1012.33 1012.33 1012.33 1012.32 1012.31 1012.28 1012.24 1012.19 1012.13 1012.07 1012.02 1011.97 1011.92
1011.45 1011.33 1011.28 1011.33 1011.45 1011.64 1011.88 1012.13 1012.38 1012.60 1012.77 1012.90 1012.97 1012.99 1012.98 1012.95 1012.91 1012.87 1012.82 1012.77 1012.71 1012.65 1012.56 1012.47 1012.36 1012.25 1012.15 1012.07 1012.00 1011.96 1011.94 1011.94 1011.95 1011.96 1011.97 1011.96 1011.95 1011.92 1011.89 1011.87 1011.84 1011.83 1011.83
1011.30 1011.15 1011.07 1011.07 1011.16 1011.33 1011.55 1011.79 1012.05 1012.28 1012.47 1012.61 1012.69 1012.73 1012.72 1012.69 1012.64 1012.59 1012.53 1012.46 1012.39 1012.30 1012.20 1012.09 1011.97 1011.84 1011.73 1011.63 1011.56 1011.51 1011.49 1011.49 1011.51 1011.53 1011.55 1011.56 1011.57 1011.57 1011.57 1011.58 1011.60 1011.63 1011.67
1011.09 1010.93 1010.84 1010.82 1010.89 1011.04 1011.24 1011.47 1011.72 1011.95 1012.15 1012.29 1012.38 1012.43 1012.43 1012.39 1012.34 1012.27 1012.20 1012.12 1012.03 1011.94 1011.82 1011.70 1011.57 1011.43 1011.31 1011.20 1011.12 1011.06 1011.04 1011.04 1011.05 1011.08 1011.11 1011.13 1011.16 1011.18 1011.21 1011.25 1011.30 1011.37 1011.46
1010.84 1010.70 1010.61 1010.59 1010.65 1010.78 1010.96 1011.18 1011.41 1011.63 1011.81 1011.95 1012.04 1012.08 1012.08 1012.04 1011.99 1011.92 1011.84 1011.76 1011.67 1011.56 1011.45 1011.32 1011.18 1011.05 1010.92 1010.81 1010.73 1010.67 1010.65 1010.64 1010.66 1010.69 1010.72 1010.75 1010.78 1010.81 1010.86 1010.92 1011.00 1011.10 1011.22
1010.54 1010.43 1010.37 1010.36 1010.42 1010.54 1010.70 1010.89 1011.09 1011.28 1011.44 1011.56 1011.63 1011.66 1011.66 1011.63 1011.57 1011.51 1011.44 1011.36 1011.28 1011.19 1011.08 1010.96 1010.84 1010.72 1010.60 1010.50 1010.43 1010.38 1010.36 1010.36 1010.37 1010.40 1010.43 1010.46 1010.49 1010.53 1010.57 1010.64 1010.72 1010.84 1010.97
1010.20 1010.13 1010.09 1010.10 1010.16 1010.26 1010.40 1010.56 1010.72 1010.88 1011.00 1011.09 1011.15 1011.16 1011.16 1011.13 1011.08 1011.04 1010.99 1010.93 1010.87 1010.81 1010.73 1010.64 1010.55 1010.45 1010.36 1010.28 1010.23 1010.20 1010.19 1010.19 1010.22 1010.24 1010.27 1010.29 1010.32 1010.34 1010.38 1010.43 1010.51 1010.61 1010.74
1009.80 1009.76 1009.74 1009.76 1009.82 1009.90 1010.02 1010.14 1010.27 1010.38 1010.47 1010.53 1010.57 1010.58 1010.57 1010.55 1010.53 1010.51 1010.50 1010.48 1010.46 1010.43 1010.40 1010.35 1010.29 1010.24 1010.19 1010.14 1010.12 1010.11 1010.12 1010.14 1010.17 1010.20 1010.23 1010.24 1010.25 1010.26 1010.27 1010.30 1010.35 1010.43 1010.53
1009.34 1009.31 1009.29 1009.31 1009.36 1009.43 1009.51 1009.61 1009.70 1009.78 1009.84 1009.88 1009.91 1009.92 1009.93 1009.94 1009.95 1009.98 1010.01 1010.04 1010.07 1010.09 1010.10 1010.10 1010.09 1010.07 1010.06 1010.06 1010.06 1010.08 1010.11 1010.15 1010.19 1010.23 1010.25 1010.25 1010.25 1010.23 1010.22 1010.22 1010.24 1010.28 1010.35
1008.79 1008.75 1008.72 1008.73 1008.76 1008.81 1008.88 1008.95 1009.02 1009.08 1009.14 1009.18 1009.21 1009.25 1009.28 1009.33 1009.39 1009.47 1009.55 1009.64 1009.72 1009.79 1009.85 1009.89 1009.92 1009.94 1009.96 1009.99 1010.02 1010.07 1010.12 1010.17 1010.22 1010.25 1010.27 1010.27 1010.25 1010.21 1010.18 1010.15 1010.14 1010.15 1010.19
1008.16 1008.08 1008.04 1008.03 1008.05 1008.09 1008.15 1008.21 1008.28 1008.35 1008.41 1008.47 1008.53 1008.60 1008.69 1008.79 1008.91 1009.04 1009.18 1009.31 1009.44 1009.55 1009.65 1009.72 1009.78 1009.82 1009.87 1009.91 1009.96 1010.01 1010.07 1010.13 1010.18 1010.21 1010.23 1010.22 1010.19 1010.14 1010.09 1010.04 1010.01 1009.99 1010.01
1007.44 1007.33 1007.27 1007.24 1007.26 1007.30 1007.37 1007.44 1007.53 1007.62 1007.72 1007.82 1007.93 1008.06 1008.20 1008.36 1008.53 1008.72 1008.91 1009.08 1009.24 1009.38 1009.50 1009.58 1009.65 1009.70 1009.74 1009.79 1009.83 1009.89 1009.95 1010.00 1010.05 1010.08 1010.09 1010.07 1010.03 1009.98 1009.91 1009.85 1009.81 1009.78 1009.78
1006.67 1006.54 1006.46 1006.44 1006.46 1006.52 1006.61 1006.72 1006.85 1006.98 1007.12 1007.28 1007.45 1007.63 1007.83 1008.05 1008.28 1008.51 1008.74 1008.94 1009.12 1009.27 1009.38 1009.47 1009.52 1009.56 1009.59 1009.62 1009.65 1009.69 1009.74 1009.78 1009.82 1009.84 1009.84 1009.82 1009.77 1009.71 1009.64 1009.58 1009.53 1009.50 1009.50
1005.91 1005.77 1005.70 1005.69 1005.74 1005.84 1005.97 1006.12 1006.29 1006.48 1006.68 1006.89 1007.11 1007.35 1007.61 1007.87 1008.14 1008.40 1008.65 1008.87 1009.05 1009.19 1009.29 1009.35 1009.39 1009.40 1009.40 1009.41 1009.42 1009.44 1009.46 1009.49 1009.51 1009.52 1009.51 1009.48 1009.43 1009.36 1009.29 1009.23 1009.18 1009.15 1009.15
1005.22 1005.10 1005.06 1005.08 1005.18 1005.32 1005.49 1005.70 1005.92 1006.15 1006.40 1006.66 1006.93 1007.21 1007.50 1007.79 1008.09 1008.36 1008.61 1008.83 1009.00 1009.12 1009.19 1009.23 1009.23 1009.21 1009.19 1009.16 1009.15 1009.14 1009.15 1009.15 1009.16 1009.15 1009.13 1009.08 1009.03 1008.95 1008.88 1008.81 1008.76 1008.73 1008.74
1004.69 1004.61 1004.61 1004.69 1004.83 1005.02 1005.25 1005.49 1005.75 1006.02 1006.29 1006.58 1006.87 1007.17 1007.48 1007.79 1008.08 1008.35 1008.59 1008.79 1008.94 1009.03 1009.08 1009.08 1009.05 1009.00 1008.95 1008.89 1008.85 1008.82 1008.80 1008.79 1008.78 1008.75 1008.72 1008.66 1008.59 1008.50 1008.42 1008.34 1008.28 1008.24 1008.24
1004.37 1004.36 1004.42 1004.56 1004.75 1004.99 1005.24 1005.51 1005.79 1006.07 1006.35 1006.64 1006.93 1007.22 1007.52 1007.81 1008.08 1008.33 1008.55 1008.72 1008.83 1008.90 1008.91 1008.89 1008.83 1008.75 1008.67 1008.59 1008.53 1008.47 1008.43 1008.40 1008.36 1008.32 1008.27 1008.19 1008.10 1008.00 1007.89 1007.79 1007.71 1007.65 1007.62
1004.31 1004.36 1004.50 1004.69 1004.92 1005.18 1005.46 1005.73 1006.01 1006.27 1006.54 1006.80 1007.06 1007.32 1007.59 1007.84 1008.08 1008.29 1008.47 1008.60 1008.68 1008.71 1008.70 1008.64 1008.55 1008.45 1008.34 1008.23 1008.14 1008.06 1007.99 1007.93 1007.87 1007.81 1007.72 1007.62 1007.51 1007.38 1007.24 1007.11 1007.00 1006.91 1006.85
1004.48 1004.61 1004.80 1005.03 1005.30 1005.57 1005.84 1006.11 1006.35 1006.59 1006.81 1007.03 1007.24 1007.45 1007.66 1007.87 1008.06 1008.22 1008.35 1008.44 1008.48 1008.47 1008.41 1008.32 1008.19 1008.05 1007.91 1007.77 1007.64 1007.52 1007.42 1007.32 1007.23 1007.12 1007.00 1006.87 1006.72 1006.56 1006.39 1006.22 1006.07 1005.94 1005.84
1004.86 1005.04 1005.28 1005.54 1005.82 1006.09 1006.34 1006.57 1006.77 1006.96 1007.13 1007.29 1007.44 1007.59 1007.74 1007.89 1008.02 1008.12 1008.20 1008.23 1008.22 1008.15 1008.05 1007.90 1007.73 1007.54 1007.34 1007.15 1006.96 1006.79 1006.63 1006.48 1006.33 1006.18 1006.01 1005.83 1005.64 1005.44 1005.23 1005.03 1004.84 1004.67 1004.53
Thickness
5515 5514 5514 5513 5513 5513 5513 5513 5512 5512 5512 5512 5512 5512 5512 5513 5513 5514 5514 5514 5513 5513 5513 5513 5513 5512 5511 5510 5510 5509 5508 5507 5505 5504 5502 5501 5500 5499 5498 5498 5497 5496 5494
5505 5505 5504 5504 5503 5503 5502 5502 5502 5502 5502 5502 5502 5502 5502 5503 5503 5503 5503 5503 5503 5502 5502 5502 5502 5501 5500 5499 5498 5497 5496 5495 5493 5490 5489 5488 5487 5486 5486 5485 5484 5483 5482
5496 5495 5494 5493 5492 5492 5492 5492 5492 5492 5492 5491 5491 5492 5492 5492 5493 5493 5493 5493 5493 5492 5492 5492 5491 5490 5489 5488 5487 5485 5484 5483 5481 5478 5477 5475 5474 5473 5472 5472 5471 5470 5469
5486 5485 5484 5483 5482 5482 5482 5481 5481 5482 5481 5481 5482 5482 5482 5483 5483 5483 5483 5482 5482 5482 5481 5481 5480 5479 5479 5477 5475 5474 5472 5470 5468 5466 5464 5462 5461 5460 5459 5458 5457 5457 5456
5476 5475 5474 5473 5472 5472 5471 5471 5471 5471 5472 5472 5471 5472 5472 5473 5473 5473 5473 5472 5471 5471 5470 5470 5470 5469 5469 5467 5465 5464 5461 5459 5457 5454 5453 5451 5449 5447 5446 5446 5444 5443 5443
5467 5466 5465 5464 5463 5462 5461 5461 5462 5461 5462 5461 5461 5462 5462 5463 5463 5464 5463 5462 5461 5460 5460 5459 5459 5458 5458 5457 5455 5454 5452 5449 5447 5444 5442 5440 5439 5437 5436 5434 5431 5429 5429
5458 5457 5456 5455 5453 5452 5452 5452 5451 5451 5451 5451 5452 5452 5452 5453 5454 5454 5454 5452 5451 5450 5450 5449 5448 5447 5446 5445 5444 5443 5441 5439 5437 5435 5432 5430 5428 5427 5425 5423 5420 5417 5416
5448 5447 5446 5445 5444 5443 5442 5442 5442 5442 5442 5442 5442 5442 5442 5443 5444 5445 5444 5442 5441 5440 5439 5439 5437 5436 5435 5434 5432 5431 5429 5427 5426 5424 5422 5420 5417 5415 5414 5412 5409 5406 5404
5438 5436 5435 5435 5434 5433 5432 5433 5433 5433 5433 5433 5433 5432 5432 5433 5433 5433 5433 5432 5430 5429 5428 5428 5427 5425 5425 5424 5421 5419 5417 5415 5414 5413 5410 5408 5405 5403 5402 5399 5396 5394 5392
5428 5427 5426 5426 5425 5424 5424 5424 5424 5424 5424 5424 5424 5423 5423 5423 5423 5422 5422 5421 5420 5419 5418 5417 5417 5416 5414 5412 5410 5407 5405 5404 5402 5400 5398 5395 5392 5390 5389 5388 5386 5383 5381
5418 5418 5417 5417 5416 5416 5416 5416 5415 5415 5415 5414 5414 5414 5413 5413 5413 5412 5412 5411 5410 5409 5408 5407 5406 5406 5404 5402 5400 5398 5396 5394 5391 5389 5386 5383 5381 5379 5377 5375 5374 5372 5370
5409 5409 5408 5407 5407 5408 5407 5406 5406 5405 5405 5404 5404 5403 5403 5403 5403 5402 5402 5401 5401 5399 5398 5397 5396 5395 5395 5393 5391 5389 5387 5384 5381 5378 5376 5373 5370 5368 5366 5364 5362 5361 5360
5399 5399 5399 5399 5398 5398 5398 5397 5397 5396 5396 5395 5394 5393 5393 5393 5393 5393 5392 5392 5391 5389 5388 5388 5387 5386 5384 5382 5381 5379 5377 5374 5372 5369 5366 5364 5361 5359 5356 5354 5352 5351 5349
5390 5390 5390 5390 5389 5389 5389 5389 5388 5388 5387 5386 5386 5385 5384 5383 5382 5382 5382 5381 5380 5379 5378 5378 5377 5375 5373 5371 5370 5369 5367 5365 5362 5360 5358 5355 5352 5349 5346 5344 5342 5340 5338
5381 5381 5381 5381 5381 5381 5381 5380 5380 5380 5380 5379 5378 5377 5375 5374 5375 5374 5373 5372 5371 5369 5368 5367 5365 5364 5362 5361 5360 5358 5357 5355 5353 5351 5348 5346 5343 5341 5338 5335 5333 5331 5329
5372 5372 5372 5372 5372 5372 5371 5371 5372 5372 5372 5372 5371 5370 5369 5368 5367 5366 5365 5364 5363 5361 5359 5358 5356 5355 5354 5352 5350 5348 5347 5345 5343 5342 5340 5337 5335 5332 5330 5327 5325 5322 5321
5364 5364 5364 5364 5365 5364 5364 5363 5362 5363 5363 5363 5362 5362 5361 5360 5359 5358 5357 5355 5354 5353 5350 5349 5348 5347 5345 5343 5341 5340 5338 5336 5334 5332 5330 5328 5325 5323 5321 5318 5316 5314 5312
5357 5357 5357 5357 5357 5357 5357 5356 5355 5354 5353 5353 5353 5353 5353 5352 5351 5350 5348 5346 5344 5343 5341 5340 5339 5338 5336 5334 5333 5331 5329 5327 5325 5323 5321 5319 5316 5314 5312 5310 5308 5306 5303
5350 5350 5350 5350 5350 5350 5349 5349 5348 5347 5346 5344 5344 5343 5343 5342 5341 5340 5339 5337 5335 5334 5332 5332 5331 5329 5328 5327 5325 5323 5321 5319 5317 5314 5312 5310 5308 5305 5303 5301 5299 5298 5295
5343 5344 5344 5343 5343 5343 5343 5342 5341 5339 5338 5337 5336 5335 5334 5333 5331 5330 5329 5328 5327 5326 5325 5324 5323 5322 5320 5319 5317 5316 5314 5311 5309 5306 5304 5302 5299 5297 5295 5293 5291 5289 5287
5336 5336 5337 5336 5336 5336 5336 5335 5334 5332 5330 5329 5328 5327 5327 5325 5323 5322 5320 5320 5319 5319 5318 5317 5316 5314 5313 5312 5310 5308 5306 5304 5302 5299 5297 5294 5292 5289 5287 5285 5284 5282 5280
5329 5329 5329 5329 5329 5328 5328 5327 5326 5325 5323 5321 5320 5319 5320 5317 5316 5315 5313 5313 5312 5311 5311 5310 5309 5308 5306 5305 5303 5301 5299 5297 5295 5292 5289 5287 5285 5282 5280 5279 5278 5276 5274
5323 5323 5322 5322 5321 5322 5321 5320 5319 5318 5316 5314 5313 5312 5311 5310 5309 5308 5307 5306 5305 5304 5303 5303 5302 5301 5299 5298 5297 5295 5293 5291 5289 5286 5283 5281 5278 5276 5275 5273 5272 5271 5269
5317 5317 5316 5315 5315 5314 5313 5312 5311 5310 5309 5307 5306 5305 5304 5303 5302 5301 5300 5299 5298 5297 5296 5295 5295 5294 5293 5291 5290 5288 5287 5285 5283 5281 5278 5276 5273 5271 5270 5268 5267 5266 5264
5311 5311 5310 5309 5308 5307 5306 5305 5304 5303 5302 5301 5299 5298 5297 5296 5295 5295 5294 5293 5292 5291 5290 5289 5288 5287 5286 5285 5284 5283 5281 5280 5278 5276 5274 5272 5270 5268 5266 5264 5263 5262 5260
5305 5305 5304 5303 5302 5301 5300 5299 5298 5296 5295 5294 5293 5292 5291 5290 5289 5289 5288 5287 5285 5284 5283 5283 5282 5281 5280 5279 5278 5277 5276 5275 5274 5272 5270 5268 5266 5265 5263 5261 5259 5258 5256